"Pseudo-MPEC" for P21Crqt

Created 2022 Dec 19 16:22:15 UT using Find_Orb

Click here for an explanation of pseudo-MPECs

 
 Astrometry: 
     P21Crqt* C2022 12 02\dIds*$wTpy(x#AstrometryON@9U*ekHD3^fB$H`Nff!JEx$;R`F52
     P21Crqt  C2022 12 02mUiredacted;Au(vY+a$-`7FL4JNtxnaSr,,P!^7oclick96hc3!F52
     P21Crqt  C2022 12 02HNU4hereq!:+hforX6g2.M_NPCo047M!8uO+dj`$uexplanationF52

Station data:
(F52) Pan-STARRS 2, Haleakala  (N20.707382 W156.255910)  US/Hawaii.
   Observers J. Bulger, T. Dukes, T. Lowe, A. Schultz, M. Willman. Measurers
   K. Chambers, S. Chastel, T. de Boer, L. Denneau, J. Fairlamb, H.
   Flewelling, M. Huber, C.-C. Lin, E. Magnier, Y. Ramanjooloo, R. Wainscoat,
   R. Weryk. 1.8-m Ritchey-Chrétien + CCD.

Orbital elements:  P21Crqt
   Perihelion 2023 Jan 28.95898 +/- 38.9 TT = 23:00:55 (JD 2459973.45898)
Epoch 2022 Dec  3.0 TT = JDT 2459916.5   Earth MOID: 0.2753      AutoNEOCP
M 347.40097194 +/- 16               (J2000 ecliptic)
n   0.22119477 +/- 0.239            Peri.  144.65161 +/- 90
a   2.70781797 +/- 1.95             Node   336.31214 +/- 51
e   0.5468120 +/- 0.253             Incl.   15.18296 +/- 6
P   4.46                   H 21.63  G  0.15   U 11.8  SR
q 1.22715059 +/- 0.291    Q 4.18848535 +/- 53.7
From 3 observations 2022 Dec. 2 (49.7 min); mean residual 0".10
Residuals in arcseconds: 
221202 F52  .05+  .04-    221202 F52  .15-  .11+    221202 F52  .10+  .07-    

Ephemerides (geocentric):
Date (UTC) HH   RA             Dec           delta  r     elong  mag " sig PA
---- --------  ------------   ------------  ------ ------ -----  --- --------
2022 12 19 16  05 17 22.772   +71 43 40.28  .43095 1.3098 131.5 21.9  48d  70
2022 12 19 17  05 17 24.290   +71 43 53.98  .43078 1.3096 131.5 21.9  48d  70
2022 12 19 18  05 17 25.813   +71 44 07.59  .43061 1.3095 131.5 21.9  48d  70
2022 12 19 19  05 17 27.342   +71 44 21.10  .43045 1.3093 131.5 21.9  48d  70
2022 12 19 20  05 17 28.877   +71 44 34.52  .43028 1.3091 131.5 21.9  48d  70
2022 12 19 21  05 17 30.417   +71 44 47.83  .43011 1.3090 131.5 21.9  48d  70
2022 12 19 22  05 17 31.962   +71 45 01.04  .42995 1.3088 131.4 21.9  48d  70
2022 12 19 23  05 17 33.513   +71 45 14.15  .42978 1.3087 131.4 21.9  48d  70
2022 12 20 00  05 17 35.070   +71 45 27.17  .42962 1.3085 131.4 21.9  48d  70
2022 12 20 01  05 17 36.633   +71 45 40.08  .42945 1.3083 131.4 21.9  48d  70
2022 12 20 02  05 17 38.201   +71 45 52.89  .42928 1.3082 131.4 21.9  49d  70
2022 12 20 03  05 17 39.775   +71 46 05.61  .42912 1.3080 131.4 21.9  49d  70
2022 12 20 04  05 17 41.355   +71 46 18.22  .42895 1.3079 131.4 21.9  49d  70
2022 12 20 05  05 17 42.940   +71 46 30.73  .42879 1.3077 131.4 21.9  49d  70
2022 12 20 06  05 17 44.531   +71 46 43.14  .42862 1.3075 131.4 21.9  49d  70
2022 12 20 07  05 17 46.128   +71 46 55.46  .42845 1.3074 131.4 21.9  49d  70
2022 12 20 08  05 17 47.731   +71 47 07.67  .42829 1.3072 131.4 21.8  49d  70
2022 12 20 09  05 17 49.340   +71 47 19.78  .42812 1.3071 131.4 21.8  49d  70
2022 12 20 10  05 17 50.955   +71 47 31.79  .42796 1.3069 131.4 21.8  49d  70
2022 12 20 11  05 17 52.575   +71 47 43.70  .42779 1.3067 131.4 21.8  49d  70
2022 12 20 12  05 17 54.201   +71 47 55.51  .42763 1.3066 131.4 21.8  49d  70
2022 12 20 13  05 17 55.834   +71 48 07.22  .42746 1.3064 131.4 21.8  49d  70
2022 12 20 14  05 17 57.472   +71 48 18.82  .42730 1.3063 131.4 21.8  49d  70
2022 12 20 15  05 17 59.117   +71 48 30.33  .42714 1.3061 131.4 21.8  49d  70
2022 12 20 16  05 18 00.767   +71 48 41.74  .42697 1.3059 131.4 21.8  49d  70
2022 12 20 17  05 18 02.423   +71 48 53.04  .42681 1.3058 131.4 21.8  49d  70
2022 12 20 18  05 18 04.086   +71 49 04.24  .42664 1.3056 131.3 21.8  49d  70
2022 12 20 19  05 18 05.755   +71 49 15.34  .42648 1.3055 131.3 21.8  49d  70
2022 12 20 20  05 18 07.429   +71 49 26.34  .42631 1.3053 131.3 21.8  49d  70
2022 12 20 21  05 18 09.110   +71 49 37.24  .42615 1.3051 131.3 21.8  49d  70
2022 12 20 22  05 18 10.798   +71 49 48.03  .42599 1.3050 131.3 21.8  49d  70
2022 12 20 23  05 18 12.491   +71 49 58.72  .42582 1.3048 131.3 21.8  49d  70
2022 12 21 00  05 18 14.190   +71 50 09.32  .42566 1.3047 131.3 21.8  49d  70
2022 12 21 01  05 18 15.896   +71 50 19.80  .42550 1.3045 131.3 21.8  49d  70
2022 12 21 02  05 18 17.608   +71 50 30.19  .42533 1.3044 131.3 21.8  50d  70
2022 12 21 03  05 18 19.327   +71 50 40.48  .42517 1.3042 131.3 21.8  50d  70
2022 12 21 04  05 18 21.051   +71 50 50.66  .42501 1.3040 131.3 21.8  50d  70
2022 12 21 05  05 18 22.783   +71 51 00.74  .42484 1.3039 131.3 21.8  50d  70
2022 12 21 06  05 18 24.520   +71 51 10.71  .42468 1.3037 131.3 21.8  50d  70
2022 12 21 07  05 18 26.264   +71 51 20.59  .42452 1.3036 131.3 21.8  50d  70
2022 12 21 08  05 18 28.014   +71 51 30.36  .42435 1.3034 131.3 21.8  50d  70
2022 12 21 09  05 18 29.771   +71 51 40.03  .42419 1.3033 131.3 21.8  50d  70
2022 12 21 10  05 18 31.534   +71 51 49.59  .42403 1.3031 131.3 21.8  50d  70
2022 12 21 11  05 18 33.304   +71 51 59.06  .42387 1.3029 131.3 21.8  50d  70
2022 12 21 12  05 18 35.080   +71 52 08.41  .42370 1.3028 131.3 21.8  50d  70
2022 12 21 13  05 18 36.863   +71 52 17.67  .42354 1.3026 131.3 21.8  50d  70
2022 12 21 14  05 18 38.652   +71 52 26.82  .42338 1.3025 131.3 21.8  50d  70
2022 12 21 15  05 18 40.448   +71 52 35.87  .42322 1.3023 131.2 21.8  50d  70